CAPE
234 499 900 1184 1695 711 17 0 0 0 0 0 0 26 11 75 407 515 660 650 822 1106 1399 1625 1826 1817 1750 1916 2027 2047 1890 1560 1493 1426 1396 1550 1443 1619 1206 1014 1253 1241 1312 1252 1090 1124 1302 1280 1168
861 1076 1367 1540 1288 7 0 3 0 0 2 0 0 13 3 184 598 781 824 637 810 1032 1221 1167 1654 1809 1817 1900 1886 1910 1888 1767 1647 1699 1795 1766 1769 1367 1194 1115 1383 1144 1050 1448 1291 1289 1180 1129 1321
1196 1295 1617 1897 39 1 0 5 35 34 33 0 0 0 32 307 646 760 816 673 798 975 904 1288 1737 1788 1815 2086 2142 1839 1774 1615 1544 1492 1449 1391 1367 1340 1161 939 945 1141 1109 1080 1174 1090 1008 652 1031
1078 1706 2047 1808 46 0 0 0 11 52 45 0 0 41 140 500 612 706 678 692 807 824 1061 1401 1478 1813 1852 2035 2133 1941 1796 1989 1845 1608 1903 1654 1285 1108 1099 1119 1251 1173 776 829 973 565 536 956 1140
1130 1413 1342 422 31 5 0 2 6 44 33 3 0 78 250 480 580 513 592 741 837 751 1750 1335 1603 1750 1792 1865 2000 1839 1466 1398 1686 1939 1753 1678 1638 1713 1409 1098 1492 1419 628 493 852 1106 912 1122 972
1610 1701 1169 141 40 31 0 17 8 18 92 183 5 139 355 569 713 516 551 768 825 1008 1664 1218 1677 1753 1801 1818 1745 1952 1813 1534 1529 1616 1864 1611 1502 1587 1489 1639 1556 1332 701 1021 956 922 804 706 507
1694 1536 1164 81 6 22 0 31 7 15 31 49 0 95 511 492 760 615 642 748 736 806 1355 1313 1598 1649 1867 1888 1723 1843 2033 1699 1633 1843 1615 1903 1911 1625 1309 1721 1208 1366 738 1200 1122 770 1145 955 1209
1789 1424 965 72 16 17 1 8 0 45 354 357 3 66 496 634 823 804 727 746 704 754 1258 1343 1757 1956 1750 1468 1740 1825 2019 1905 1698 1844 1878 1678 1406 1774 1751 1623 1501 1383 772 939 1216 1354 1020 1097 960
1569 1503 406 233 13 14 32 6 3 24 326 723 491 85 125 812 818 990 838 779 793 716 983 1109 1552 1928 1996 1607 1651 1592 1901 1878 1822 1598 1719 1321 1335 1247 1244 699 910 1644 1111 587 1406 1379 1326 1177 754
1000 731 504 280 169 147 61 1 1 1 134 856 846 616 230 797 836 1107 1088 857 797 724 743 887 1251 1500 2057 1525 1762 1431 1333 1597 1527 1652 1636 1635 1278 1424 1208 1122 1143 1360 1281 518 985 1315 1261 879 254
534 477 204 333 389 304 138 0 0 12 10 233 912 991 555 755 717 998 1158 946 777 741 737 758 892 1521 1304 1062 1462 1272 1359 1364 1472 1801 1716 1427 1289 1449 1254 1470 949 1123 1205 603 325 525 332 182 171
17 103 144 28 161 241 145 68 0 0 0 33 613 1125 859 892 637 789 938 837 834 756 781 760 815 1344 1037 1171 1147 1059 1153 1432 1591 1693 2090 1402 1132 1170 625 1088 957 1088 842 884 124 126 0 4 0
0 0 0 0 0 16 81 21 0 0 0 5 377 907 1154 1102 762 548 651 697 797 716 691 791 911 1242 1372 1271 1001 1153 1149 1085 1182 1635 1706 1373 920 1132 866 1088 1149 1086 1016 1233 841 324 117 38 20
0 0 0 0 0 0 12 1 0 0 12 3 513 843 1302 1248 954 612 520 520 663 804 780 872 1081 1317 1356 1455 1509 1382 1080 960 1420 1335 1436 1359 1043 1304 1061 1107 732 782 667 933 982 913 580 360 134
0 0 0 0 0 0 0 0 0 0 19 10 333 834 1176 1246 1193 845 530 543 649 867 1069 1126 1417 1514 1550 1557 1572 1535 1057 1235 1044 1272 1529 1462 1553 1563 1097 934 889 470 586 611 1036 736 787 358 136
0 0 0 0 0 0 0 0 0 2 63 27 18 87 373 936 1287 1049 764 585 679 899 1247 1454 1634 1688 1632 1600 1487 1239 1021 1019 916 875 1116 1630 1723 1738 1517 1021 992 643 727 1100 1149 1076 773 544 422
0 0 0 0 0 0 0 0 0 1 45 1 0 0 0 9 955 1310 922 834 625 1065 1515 1723 1794 1700 1767 1697 1430 1306 1247 1094 724 754 675 1604 1455 1439 1447 1274 829 1024 368 1110 701 1083 937 1039 530
0 0 0 0 0 0 0 0 0 0 0 0 0 0 0 0 219 1290 1120 1018 836 940 1716 1962 1957 1999 2167 1831 1807 1326 995 931 808 749 682 1362 1499 1481 1372 1257 1293 957 484 819 1092 1023 975 821 677
0 0 0 0 0 0 0 0 0 0 0 0 0 0 0 0 3 1079 1313 1083 1090 1060 1761 2226 2250 2321 2209 1990 1781 1378 950 786 841 1097 1282 1551 1725 1366 1476 1234 1296 1475 1259 724 845 723 735 748 777
0 0 0 0 0 0 0 0 0 0 0 0 0 0 0 0 0 809 1480 1340 1171 1409 1983 2593 2664 2692 2431 2178 1958 1543 1160 707 740 1143 1561 1570 1689 1609 1484 1671 1206 1200 1137 1191 1100 1001 683 621 469
0 0 0 0 0 0 0 0 0 0 0 0 0 0 0 0 1 836 1697 1675 1368 1589 2217 2679 2996 3077 2607 2196 2252 2197 1622 1331 1034 1159 1569 1904 1775 1752 1643 1691 1675 1142 1163 1058 1119 1133 1068 791 623
0 0 0 0 0 0 0 0 0 4 14 1 0 0 0 0 0 712 1813 1875 1664 1530 2020 2677 3226 3322 3084 2703 2081 2097 1799 1519 1367 1385 1572 1895 1903 1735 1447 1593 1731 1558 1221 1086 1227 1314 1304 1098 787
0 0 0 0 0 0 0 28 10 19 16 14 0 0 0 0 0 842 1919 1900 1882 1737 1999 2580 3415 3609 3268 2994 2165 2342 2119 1670 1675 1605 1852 2160 1796 1765 1473 1555 1719 1569 1291 1335 1470 1280 1304 1181 1126
0 0 0 0 0 25 76 95 21 73 31 22 7 0 0 0 26 749 1733 1950 2077 1991 1981 2400 3535 3554 3700 3520 2805 2649 2450 2049 1655 1781 1773 1742 1956 1914 1276 1016 1546 1498 1436 1407 1455 1455 1332 1211 1043
0 0 0 11 25 30 18 17 2 74 10 1 6 25 39 25 10 484 863 1930 1987 2135 2243 2551 3569 3614 3790 3710 3075 3413 3173 2833 2781 2400 2028 1749 1313 1527 651 1027 1259 1518 1540 1487 1456 1356 928 891 1090
0 0 0 8 15 57 15 2 44 28 4 1 15 21 11 1 1 1 171 1204 2048 1933 2480 2601 3481 3763 3844 3699 3583 3332 3422 3033 2770 2796 1794 1743 1491 1069 514 836 962 1303 1672 1795 1782 1274 1269 1152 1029
0 0 8 0 43 71 50 82 37 0 28 17 100 186 840 1432 1683 1539 965 376 1188 2143 2430 2552 3355 3756 3883 3615 3668 3623 3582 3133 2877 2948 2755 2377 1931 805 710 726 1279 1630 1645 1438 1667 1417 1496 1252 932
0 0 6 39 23 92 123 3 49 91 2 53 5 512 1585 2028 2172 2210 1820 1260 954 894 2021 2659 2895 3547 3580 3165 3482 3539 3544 3463 3364 3204 3152 2080 1180 997 935 1287 1225 1550 1566 1624 1391 1324 1407 1293 1042
0 3 59 92 21 78 26 2 7 21 57 108 53 689 2372 2798 2865 2790 2164 1459 879 426 1589 2225 2712 3075 3331 3219 3290 3501 3466 3530 3422 3191 3232 1894 1231 1444 1645 1668 1523 1292 1638 1580 1258 1244 1171 975 844
1 52 92 142 82 78 43 33 58 0 0 533 1262 1802 3038 3103 3071 3313 2921 2290 1780 1275 1593 1925 2656 3052 3354 3264 3421 3512 3501 3450 3360 3311 3083 1909 1374 1717 1919 1857 1361 1054 914 1256 1421 1097 960 899 939
CIN
-410 -282 -170 -100 -34 -62 -4 -0 -0 -0 -0 -0 -0 -2 -6 -5 -3 -8 -16 -19 -11 -17 -29 -20 -10 -6 -10 -4 -2 -2 -1 -9 -3 -3 -0 -0 -0 -0 -0 -0 -0 -0 -0 -0 -0 -0 -0 -0 -0
-241 -179 -133 -104 -59 -6 -0 -2 -0 -0 -17 -0 -0 -1 -0 -9 -5 -23 -30 -39 -3 -5 -24 -32 -17 -9 -8 -1 -1 -3 -6 -2 -1 -0 -0 -0 -0 -0 -0 -0 -0 -0 -0 -0 -0 -0 -0 -0 -0
-244 -192 -109 -6 -4 -4 -0 -2 -61 -66 -61 -0 -0 -0 -17 -15 -6 -10 -38 -41 -3 -4 -11 -16 -11 -5 -4 -0 -0 -0 -0 -3 -6 -3 -1 -1 -0 -0 -0 -4 -5 -1 -0 -0 -0 -0 -0 -0 -0
-206 -130 -96 -43 -5 -0 -0 -0 -5 -22 -40 -0 -2 -38 -50 -47 -2 -5 -58 -25 -6 -1 -2 -73 -35 -7 -1 -0 -0 -0 -0 -0 -0 -0 -0 -0 -3 -4 -2 -2 -0 -0 -0 -2 -0 -3 -0 -0 -0
-178 -92 -10 -3 -3 -2 -0 -30 -84 -2 -22 -10 -0 -33 -55 -55 -39 -59 -50 -10 -3 -4 -26 -78 -49 -15 -5 -0 -0 -0 -6 -1 -0 -0 -0 -0 -0 -0 -1 -3 -0 -0 -2 -14 -0 -0 -0 -0 -0
-56 -74 -6 -3 -3 -3 -0 -13 -11 -18 -74 -76 -14 -35 -50 -91 -68 -68 -36 -7 -2 -3 -4 -58 -36 -23 -14 -0 -0 -0 -1 -1 -0 -0 -0 -0 -0 -0 -1 -0 -0 -0 -2 -0 -2 -0 -0 -0 -9
-44 -3 -17 -4 -6 -2 -0 -31 -35 -2 -38 -9 -0 -74 -63 -99 -67 -73 -52 -6 -3 -3 -3 -16 -11 -5 -1 -1 -1 -0 -0 -0 -0 -0 -0 -0 -0 -0 -2 -0 -2 -0 -3 -0 -0 -0 -0 -0 -0
-3 -7 -3 -4 -3 -4 -2 -2 -0 -58 -13 -29 -4 -12 -32 -94 -94 -74 -59 -19 -5 -1 -2 -4 -2 -0 -0 -8 -2 -1 -1 -1 -0 -0 -0 -2 -1 -0 -0 -0 -0 -0 -4 -0 -0 -0 -2 -0 -2
-39 -9 -7 -14 -8 -3 -3 -4 -1 -25 -4 -20 -26 -73 -114 -84 -115 -69 -73 -51 -21 -6 -1 -2 -1 -1 -1 -0 -1 -2 -0 -0 -0 -1 -0 -4 -1 -1 -2 -5 -12 -0 -0 -11 -0 -0 -0 -1 -13
-14 -6 -1 -66 -6 -9 -28 -2 -2 -1 -13 -15 -26 -35 -98 -114 -123 -87 -70 -65 -54 -27 -8 -2 -1 -2 -1 -1 -0 -1 -2 -1 -0 -1 -0 -2 -10 -3 -2 -4 -7 -1 -0 -17 -0 -0 -0 -11 -5
-5 -5 -10 -5 -2 -4 -7 -0 -0 -2 -4 -7 -20 -47 -77 -121 -134 -114 -101 -77 -78 -54 -26 -14 -5 -2 -2 -1 -2 -1 -1 -1 -1 -1 -1 -4 -8 -4 -2 -7 -3 -1 -1 -6 -26 -5 -13 -6 -5
-64 -25 -22 -41 -3 -4 -7 -18 -0 -0 -0 -9 -6 -33 -84 -129 -135 -130 -129 -130 -101 -87 -55 -36 -26 -2 -16 -2 -1 -2 -3 -2 -1 -0 -3 -1 -1 -5 -2 -25 -6 -0 -8 -0 -36 -17 -0 -1 -0
-0 -0 -0 -0 -0 -37 -23 -58 -0 -0 -1 -2 -6 -16 -75 -102 -125 -129 -144 -135 -130 -131 -105 -68 -51 -11 -4 -3 -3 -2 -2 -1 -2 -3 -0 -1 -2 -0 -2 -2 -11 -8 -9 -6 -3 -2 -17 -15 -13
-0 -0 -0 -0 -0 -0 -27 -14 -0 -0 -3 -7 -14 -15 -43 -65 -103 -143 -157 -140 -155 -150 -135 -88 -64 -27 -15 -5 -1 -2 -1 -2 -1 -6 -3 -4 -0 -4 -1 -3 -3 -3 -10 -11 -12 -6 -0 -2 -5
-0 -0 -0 -0 -0 -0 -0 -0 -0 -0 -6 -14 -11 -24 -34 -55 -73 -129 -154 -157 -167 -169 -147 -108 -61 -33 -24 -15 -2 -0 -3 -2 -2 -5 -1 -2 -3 -5 -2 -1 -1 -6 -1 -13 -3 -14 -2 -4 -11
-0 -0 -0 -0 -0 -0 -0 -0 -0 -1 -6 -44 -13 -16 -25 -34 -45 -95 -152 -164 -201 -183 -167 -120 -75 -41 -36 -27 -22 -8 -3 -1 -1 -4 -0 -0 -0 -0 -8 -2 -4 -6 -4 -8 -17 -10 -14 -1 -4
-0 -0 -0 -0 -0 -0 -0 -0 -0 -1 -4 -4 -0 -0 -0 -32 -45 -80 -134 -168 -215 -203 -202 -168 -108 -79 -48 -30 -30 -24 -9 -4 -2 -2 -3 -5 -0 -0 -0 -6 -10 -0 -1 -10 -34 -10 -8 -2 -1
-0 -0 -0 -0 -0 -0 -0 -0 -0 -0 -0 -0 -0 -0 -0 -0 -28 -65 -117 -171 -210 -239 -210 -203 -155 -86 -45 -37 -15 -33 -36 -24 -4 -2 -3 -4 -5 -0 -1 -4 -5 -8 -0 -8 -5 -19 -11 -2 -2
-0 -0 -0 -0 -0 -0 -0 -0 -0 -0 -0 -0 -0 -0 -0 -0 -3 -44 -103 -163 -204 -256 -225 -172 -184 -125 -84 -73 -63 -56 -75 -61 -22 -1 -2 -3 -5 -20 -3 -7 -1 -4 -6 -1 -2 -3 -14 -5 -3
-0 -0 -0 -0 -0 -0 -0 -0 -0 -0 -0 -0 -0 -0 -0 -0 -0 -39 -108 -162 -196 -246 -209 -169 -144 -151 -128 -94 -79 -70 -65 -66 -46 -9 -2 -1 -6 -2 -1 -1 -4 -1 -1 -9 -2 -4 -9 -2 -2
-0 -0 -0 -0 -0 -0 -0 -0 -0 -0 -0 -0 -0 -0 -0 -0 -0 -32 -105 -154 -202 -229 -217 -189 -163 -120 -157 -102 -52 -37 -42 -29 -35 -13 -2 -2 -1 -1 -6 -1 -0 -2 -4 -3 -8 -5 -7 -4 -1
-0 -0 -0 -0 -0 -0 -0 -0 -0 -9 -10 -1 -0 -0 -0 -0 -0 -19 -92 -137 -191 -215 -243 -195 -154 -128 -104 -86 -103 -73 -71 -50 -22 -5 -2 -2 -17 -2 -3 -3 -1 -6 -3 -13 -2 -1 -1 -6 -2
-0 -0 -0 -0 -0 -0 -0 -11 -17 -21 -15 -8 -0 -0 -0 -0 -0 -16 -85 -141 -156 -211 -248 -207 -131 -72 -71 -87 -82 -83 -59 -44 -4 -4 -2 -2 -5 -9 -22 -6 -1 -4 -4 -4 -4 -4 -3 -2 -1
-0 -0 -0 -0 -0 -8 -8 -12 -68 -13 -29 -14 -10 -0 -0 -0 -2 -22 -32 -109 -159 -187 -212 -215 -105 -93 -50 -63 -65 -77 -79 -36 -21 -2 -2 -9 -10 -13 -10 -7 -3 -7 -2 -1 -1 -2 -5 -3 -6
-0 -0 -0 -10 -9 -10 -39 -22 -17 -58 -73 -33 -13 -7 -5 -10 -8 -8 -28 -67 -130 -147 -189 -205 -147 -122 -67 -55 -77 -48 -39 -35 -20 -8 -18 -23 -13 -14 -25 -13 -7 -8 -5 -2 -3 -3 -12 -13 -3
-0 -0 -1 -11 -8 -14 -77 -7 -45 -35 -52 -11 -12 -30 -22 -16 -11 -1 -8 -42 -93 -141 -151 -161 -168 -109 -77 -75 -63 -68 -45 -23 -36 -11 -37 -18 -3 -3 -12 -16 -30 -28 -1 -1 -0 -7 -2 -7 -3
-0 -0 -5 -0 -21 -11 -41 -42 -36 -3 -35 -52 -10 -9 -1 -11 -29 -25 -15 -18 -64 -125 -153 -172 -147 -108 -83 -97 -66 -57 -51 -48 -25 -11 -7 -4 -10 -38 -54 -38 -6 -0 -1 -1 -0 -2 -0 -0 -4
-0 -0 -6 -13 -33 -15 -8 -28 -92 -19 -82 -95 -23 -4 -8 -19 -31 -40 -50 -48 -55 -78 -142 -142 -153 -107 -72 -81 -73 -60 -64 -42 -6 -2 -1 -17 -59 -64 -24 -9 -3 -0 -0 -0 -2 -1 -0 -0 -3
-4 -28 -7 -8 -12 -7 -39 -29 -108 -6 -45 -26 -17 -15 -3 -58 -53 -61 -82 -50 -58 -67 -115 -151 -132 -149 -97 -75 -77 -68 -64 -33 -17 -4 -4 -41 -95 -64 -28 -10 -16 -13 -4 -1 -0 -0 -0 -0 -3
-2 -16 -12 -7 -15 -10 -30 -76 -20 -0 -2 -0 -1 -1 -6 -37 -63 -66 -42 -86 -94 -85 -119 -147 -128 -135 -83 -63 -65 -56 -61 -32 -14 -10 -15 -45 -68 -29 -9 -9 -33 -61 -45 -16 -2 -1 -1 -1 -0
Wind_Speed
18 17 14 14 17 21 31 34 12 12 26 26 22 10 16 12 10 16 22 22 25 25 26 25 22 22 23 20 24 23 25 28 23 19 22 22 20 20 20 17 15 14 15 18 15 17 16 14 13
19 17 14 15 17 28 30 30 33 31 23 23 21 19 18 24 21 24 24 24 25 25 26 25 23 20 19 19 17 18 11 4 16 19 20 21 21 20 19 16 14 17 15 9 15 16 17 15 15
15 16 11 13 21 27 27 29 29 24 16 17 20 16 14 19 20 25 25 26 26 25 25 23 23 19 18 19 18 15 13 4 14 13 18 22 19 19 19 22 11 18 14 15 11 12 16 15 15
17 15 13 16 28 25 27 26 23 21 17 17 16 20 22 16 24 25 28 28 26 25 25 24 24 22 18 15 15 13 7 4 7 12 13 16 12 18 23 16 22 16 17 13 9 11 14 14 11
13 11 14 11 26 24 25 25 23 24 20 12 10 25 26 25 26 29 29 28 26 25 22 23 24 23 20 15 10 10 8 4 6 7 14 15 14 12 14 21 22 19 13 5 11 9 13 7 9
11 13 12 17 23 22 23 23 22 23 22 20 22 25 25 24 26 28 28 27 26 25 22 22 23 22 22 19 15 7 6 5 4 6 9 12 14 15 15 14 6 15 10 5 10 12 10 9 7
10 14 8 19 20 20 21 20 24 22 21 22 17 21 22 23 25 27 27 26 26 25 24 22 21 21 21 21 19 15 8 6 4 8 10 13 11 12 13 14 6 9 10 8 6 10 12 9 9
9 14 9 13 19 19 20 20 21 22 22 20 19 19 19 23 25 26 25 25 25 25 24 24 22 20 20 20 21 17 13 6 4 4 4 9 10 12 10 11 8 8 10 11 11 8 10 13 13
13 10 16 18 16 17 20 22 21 18 15 16 17 19 20 23 24 24 24 24 24 24 24 24 24 21 19 18 18 19 11 3 5 6 5 7 6 9 8 15 5 10 9 13 13 8 10 11 13
4 21 22 22 21 20 23 23 23 19 13 12 15 18 20 21 22 22 22 22 22 23 23 22 22 20 19 18 13 20 14 13 4 3 3 13 5 15 17 7 8 12 12 13 14 11 14 19 12
2 10 29 31 25 26 27 25 24 22 9 7 10 12 17 19 19 20 21 21 22 22 22 22 22 22 22 21 10 17 15 16 10 7 6 6 3 5 7 7 10 12 12 9 10 12 21 22 27
12 12 29 21 33 31 19 29 24 23 25 21 8 11 15 17 18 19 20 21 22 22 22 22 22 22 22 22 21 22 17 15 11 2 3 10 8 8 13 7 13 12 13 21 8 5 13 20 26
11 16 18 22 34 34 34 21 22 29 24 15 10 9 11 13 15 18 19 21 22 22 22 22 22 21 22 23 25 24 23 18 14 7 6 9 12 11 14 15 14 15 12 18 21 18 15 17 18
13 27 26 29 23 16 31 36 32 21 20 17 10 3 6 12 14 17 18 20 21 22 22 22 22 21 22 23 23 23 21 17 13 14 7 13 5 7 16 18 21 22 8 12 17 20 19 20 13
13 11 12 13 10 15 12 22 23 32 12 14 9 8 2 10 13 15 18 18 22 22 22 22 22 22 22 22 21 20 19 19 18 23 7 8 12 7 13 23 17 15 17 17 17 16 20 16 22
15 14 30 14 22 10 10 17 9 33 12 11 11 10 6 1 10 14 18 17 20 21 21 21 21 21 22 21 20 19 18 18 19 19 17 14 17 18 8 24 25 4 7 10 15 20 25 18 22
15 16 17 17 19 17 14 21 15 35 24 21 22 22 20 11 6 10 17 18 17 20 19 20 20 20 20 20 19 18 17 17 17 16 18 15 19 18 20 22 26 11 17 4 7 15 20 26 25
13 18 23 21 19 19 19 18 19 25 39 30 35 34 29 24 7 9 14 17 15 18 18 18 18 17 17 17 17 16 16 15 16 15 15 13 16 17 16 18 27 20 19 9 7 6 15 25 24
17 24 30 34 37 36 31 34 30 35 35 37 42 43 38 34 17 9 13 16 18 16 18 18 17 16 17 17 16 15 14 14 15 13 11 10 9 16 14 11 2 17 23 24 13 11 10 23 26
19 22 26 32 31 35 38 39 34 33 36 33 37 46 45 39 21 11 12 18 19 16 15 17 18 17 17 16 15 13 12 12 13 12 9 9 8 8 9 10 8 2 7 22 19 17 24 17 18
19 24 33 34 36 36 37 44 37 34 35 36 38 38 42 43 31 14 13 19 19 18 18 18 18 17 16 12 13 11 11 10 11 12 9 5 9 7 6 6 5 11 10 17 15 14 15 26 25
17 25 31 32 32 32 33 41 38 34 28 23 32 33 32 36 30 16 14 19 22 20 18 19 19 17 15 16 15 13 11 10 10 8 8 7 7 8 6 3 4 13 20 23 27 24 19 21 28
22 28 30 29 30 29 26 34 43 36 24 23 30 34 27 22 20 18 15 20 19 20 18 18 18 16 17 19 15 13 10 9 8 6 5 4 1 3 5 5 5 12 19 24 25 24 23 24 26
21 24 22 21 18 22 22 41 45 45 37 36 18 21 21 14 13 17 15 14 17 20 18 18 17 18 18 18 19 13 11 9 7 7 5 2 2 3 7 10 7 20 26 27 23 19 14 21 27
14 15 21 17 14 13 32 31 35 36 30 25 24 27 26 10 11 7 17 14 14 20 19 17 18 18 19 20 20 14 10 10 6 4 3 3 2 3 7 8 15 5 30 28 21 14 12 17 24
19 21 20 23 18 9 31 31 32 33 38 37 24 26 26 24 21 19 12 14 14 17 18 17 16 19 19 19 18 16 11 7 6 4 4 4 6 6 10 3 18 25 10 0 11 10 11 12 21
13 14 17 15 8 8 22 26 34 30 26 26 8 16 21 23 26 26 27 21 12 15 17 19 16 18 20 18 17 14 10 10 6 4 5 5 8 10 12 13 12 11 11 6 2 5 6 8 17
6 12 12 5 13 20 30 33 25 30 33 33 16 22 19 25 27 29 32 31 28 15 15 17 16 16 17 16 16 12 9 8 4 3 5 6 8 9 10 9 8 6 5 4 2 1 5 6 6
12 7 5 3 7 20 27 22 20 25 18 34 15 17 19 24 26 27 30 29 26 20 15 16 17 16 20 19 17 13 10 8 8 4 3 6 7 7 8 8 8 7 7 7 5 3 4 3 5
7 29 34 11 6 24 36 34 27 12 11 23 20 24 24 26 26 26 27 25 22 16 14 14 16 16 19 20 18 15 11 9 7 4 3 1 3 5 6 7 8 9 10 9 9 8 6 4 3
Wind_Direction
141 143 140 117 103 99 70 60 353 89 83 89 108 137 119 149 274 144 91 97 104 104 113 116 109 108 109 100 110 103 116 148 186 201 186 180 184 183 183 196 201 205 195 185 200 191 194 204 203
136 126 128 110 103 75 69 65 61 62 96 98 106 112 113 72 96 96 98 103 108 106 114 116 113 104 100 98 92 90 66 267 212 202 199 187 186 188 193 202 206 195 200 225 201 200 195 205 199
150 117 118 118 90 72 73 63 68 89 109 109 101 114 125 105 117 110 108 113 112 109 118 111 115 107 103 101 96 84 76 37 222 229 206 187 207 203 197 180 231 193 212 207 227 224 205 206 207
117 103 110 103 46 73 53 47 81 89 107 110 117 98 100 127 121 113 121 120 115 114 115 114 123 117 108 97 92 81 48 7 254 232 232 222 243 215 185 213 179 210 205 224 239 230 213 210 218
140 124 105 134 41 67 57 52 55 73 87 126 129 89 89 104 112 111 121 123 124 115 102 116 123 123 118 104 82 75 57 4 280 265 231 225 232 247 237 195 159 202 234 315 235 242 222 242 237
126 101 106 32 30 54 49 58 60 59 77 94 97 88 93 107 111 119 123 125 129 116 108 116 123 125 124 119 107 71 57 16 313 287 259 243 233 233 233 234 15 224 256 305 250 236 239 244 249
141 216 183 8 20 33 27 58 37 49 56 55 121 95 93 109 113 119 125 128 130 127 110 120 124 126 126 128 123 112 79 56 1 276 263 248 257 245 244 236 308 270 268 272 288 255 241 244 248
168 222 181 56 15 23 37 41 27 34 37 47 78 85 99 111 116 118 122 127 132 131 122 128 127 128 128 130 134 125 110 62 331 338 328 278 269 257 267 264 284 298 279 260 257 268 253 240 244
198 198 299 260 25 21 7 1 9 32 49 62 68 49 82 106 119 121 121 125 133 135 132 129 133 132 130 125 130 135 115 325 320 303 327 298 299 285 294 251 323 282 292 262 255 273 258 256 253
126 235 307 318 337 341 330 329 352 344 39 60 70 71 98 113 120 128 129 129 132 136 139 134 131 130 131 132 117 141 125 125 78 350 19 181 311 262 254 311 305 281 279 270 260 267 256 241 268
325 212 253 289 309 310 303 291 299 341 41 90 92 87 110 118 126 130 137 139 137 137 140 140 137 134 141 144 114 135 131 138 121 290 299 308 38 25 319 319 304 288 281 292 277 270 245 243 223
217 223 244 240 289 286 322 300 298 329 304 310 62 110 122 127 129 134 139 140 143 142 143 141 140 137 147 146 144 156 137 135 139 33 96 292 303 314 293 315 293 295 280 256 287 300 273 252 236
218 226 232 236 263 256 278 314 314 302 309 333 356 109 122 129 131 138 139 143 146 146 146 144 140 142 146 151 163 161 164 147 135 122 119 294 287 296 294 290 297 291 282 265 255 261 270 267 263
232 246 243 247 237 234 241 275 285 310 326 325 337 51 113 140 143 143 143 147 149 149 149 146 144 143 148 151 157 160 159 145 135 144 125 161 316 310 288 290 284 277 282 272 263 258 262 263 282
316 296 254 247 255 235 235 224 220 260 320 321 333 327 74 146 156 158 155 150 151 150 149 148 148 147 149 152 152 151 154 164 151 185 102 129 153 328 301 269 296 292 268 265 266 268 263 275 265
252 257 249 288 311 275 253 235 276 229 305 322 308 312 317 219 173 169 165 158 154 149 150 149 148 149 151 150 149 151 153 154 158 161 156 149 161 170 132 262 249 340 286 271 268 265 258 274 268
293 260 250 293 310 311 297 294 288 264 285 292 289 291 299 302 197 184 173 167 160 156 148 150 150 151 151 150 150 151 150 155 156 155 165 152 172 170 179 200 242 295 275 268 281 275 270 263 267
290 303 301 298 311 301 294 289 288 284 272 286 277 276 282 289 278 216 185 175 169 162 155 151 151 150 148 146 150 148 152 153 158 155 159 143 164 171 171 183 242 271 271 282 282 274 279 269 273
292 299 299 297 294 296 298 289 293 285 285 281 274 268 271 272 288 237 199 188 177 173 165 162 155 153 151 151 151 151 154 153 158 158 145 138 136 168 166 164 252 287 269 266 284 286 288 275 272
286 290 292 297 296 293 291 287 288 290 285 286 281 264 262 266 276 247 207 186 182 181 176 168 167 160 160 156 153 150 147 151 158 157 143 149 144 149 161 167 165 183 297 276 280 283 274 285 284
301 299 301 298 298 293 291 284 286 285 286 285 281 275 263 258 267 247 212 191 186 182 179 174 173 169 167 162 154 146 143 147 151 165 159 155 169 168 169 173 184 302 295 286 288 286 284 277 277
310 312 308 306 302 293 290 286 282 286 287 286 286 276 271 261 264 249 221 194 185 184 182 181 178 176 172 166 161 161 154 151 159 156 167 169 185 192 192 232 285 298 288 282 273 280 286 284 276
316 317 314 312 307 302 286 286 280 273 289 287 288 274 274 263 258 252 215 194 194 186 186 185 183 179 174 174 168 164 163 156 147 155 153 173 116 230 245 250 284 297 291 282 280 282 283 281 281
331 327 327 322 309 305 299 284 247 260 276 262 294 283 269 258 261 259 232 214 201 187 188 186 188 183 180 178 179 172 170 161 154 163 155 50 348 268 227 255 296 291 280 277 286 290 294 289 284
340 336 337 330 326 313 273 291 233 261 285 278 285 254 245 249 269 230 248 227 213 193 191 192 190 190 185 182 182 179 173 172 161 118 115 68 31 3 320 312 301 226 250 271 293 300 296 296 292
341 342 338 335 334 334 287 242 268 279 274 247 293 268 264 259 263 269 269 245 228 206 205 202 198 190 190 185 184 185 179 170 173 150 127 96 54 72 128 31 285 209 169 107 316 315 315 314 300
342 345 358 347 241 244 299 249 268 230 217 231 333 297 277 281 274 275 272 276 232 223 211 210 207 197 191 192 185 187 187 182 173 145 116 90 54 90 112 129 142 159 173 160 8 329 323 321 310
313 344 348 3 1 248 280 270 235 259 270 254 279 273 300 283 282 281 273 271 270 242 230 217 220 217 207 199 193 195 193 184 176 139 115 87 74 82 73 92 115 83 83 101 92 39 345 331 329
355 322 270 289 207 245 258 237 220 287 296 241 292 312 307 295 291 291 284 279 274 259 237 218 214 215 214 205 196 196 193 186 167 148 118 115 98 79 48 58 65 64 44 33 37 35 8 21 355
326 321 282 317 222 233 273 247 331 328 336 280 297 314 307 299 301 299 293 286 277 262 241 225 213 223 216 199 200 201 200 189 177 163 141 86 96 69 59 64 40 29 19 23 21 24 36 80 66